OPS 4682 DEB, 18271

Orbit data source: Space-Track

OPS 4682 DEB, 18271 is space debris in LEO originally from a launch on Sat, 03 Apr 1965 UTC launched from the Air Force Western Test Range (AFWTR). Debris objects in space refer to the collection of defunct objects orbiting the Earth. Examples of debris include non-operational satellites, rocket bodies, and fragments generated from explosions, collisions, or faulty payload assembly.

Loading next visibility...
Identifier
18271, 1965-027AA
Orbit
LEO
Country
Flag of USUS
Related business
Manufacturer
Unknown
Mission
Spacecraft
Bus & Motor
Unknown
Mass
Unknown
Launch date (UTC)
1965-04-03 (61 years ago)
Launch vehicle
Unknown
Launch site
Air Force Western Test Range (AFWTR)
Object type
Payload
Rocket body
Debris
Shape & HBR
Unknown shape, 0.1 m
Radar Cross Section
Medium (>0.1 m² and <1 m²)

Expand to show TLE details & history
Last TLE update: 1 day ago

TLE from 1 day ago
0 OPS 4682 DEB
1 18271U 65027AA  26207.43393831  .00000532  00000-0  17971-2 0  9997
2 18271  90.2446   8.3803 0032236  17.8907  11.1986 12.97676155894484
Epoch: 2026-07-26T10:24Z
TLE epoch observation values (Epoch: 2026-07-26T10:24:52.269Z)
Latitude
29.20426°
Longitude
-92.10545°
Altitude
1,250.645 km
Speed
7.244 km/s
True Right ascension
00h 32m 58s
True Declination
29° 04' 03"
Sunlit
Object was in daylight at epoch
Visualization orbit readout
Latitude
Unknown
Longitude
Unknown
Altitude
Unknown
Speed
Unknown
Apparent Right ascension
Unknown
Apparent Declination
Unknown
Sunlit
N/A
Visualization observer readout
Local Sidereal Time
00:01:30
Azimuth
Unknown
Elevation
Unknown
Doppler factor
Unknown
Orbital elements
Apogee altitude
1,292.985 km
Perigee altitude
1,243.686 km
Semi-major axis
7,646.473 km
Eccentricity
0.00322
Inclination
90.2446°
RAAN
8.3803°
Arg. of periapsis
17.8907°
True anomaly
11.27063°
Mean anomaly
11.1986°
Eccentric anomaly
11.23458°
Mean motion
3.24602 °/min
Orbital period
110.9 mins
BSTAR
0.0017971
Loading maneuver chart data...
Computing Atmospheric mass density...
Loading historical data...
Loading historical data...
Loading historical data...
Loading historical data...
Loading historical data...
Loading historical data...
Loading historical data...

Documentation

Showing up to 5 results
|